GFSNIL_sfc_rhum_000.txt.gz
RH
66 72 74 77 76 74 80 82 85 82 75 74 69 74 73 71 79 79 80 77 84 88
69 67 72 74 80 85 86 81 88 77 79 80 84 74 74 77 69 79 82 85 86 91
59 62 70 79 80 84 86 80 76 74 80 72 70 64 70 75 76 82 88 86 85 74
64 68 72 77 82 84 79 77 77 70 73 72 73 75 72 71 74 83 82 73 70 68
66 68 72 75 77 77 74 73 73 77 80 80 76 72 69 72 76 71 67 65 68 67
72 76 75 72 71 73 74 74 78 81 78 72 66 65 69 74 72 64 65 68 68 68
76 81 83 82 80 82 85 90 86 78 76 66 63 64 70 66 65 66 67 69 70 71
79 80 83 87 90 91 89 81 86 85 67 62 62 62 66 61 67 70 70 70 68 67
78 82 86 90 92 93 88 90 74 56 63 67 58 73 72 78 88 78 73 80 81 81
81 85 87 91 94 95 93 84 77 67 71 77 89 79 82 88 85 86 85 70 72 67
82 84 88 92 92 93 93 91 67 79 80 89 73 72 80 76 82 76 75 71 75 73
82 86 90 93 93 93 93 81 77 75 79 68 75 66 63 69 90 84 80 70 71 71
82 86 92 92 91 91 70 70 71 75 74 62 76 63 61 67 94 96 87 86 74 76
80 84 86 84 80 68 80 78 89 86 81 71 72 74 61 62 92 90 91 87 85 82

GFSNIL_sfc_rhum_003.txt.gz
RH
33 29 28 36 38 40 44 48 60 63 62 58 56 55 59 50 46 50 47 50 56 48
39 40 41 45 46 45 57 57 68 62 60 61 58 56 53 50 51 51 56 59 59 57
42 43 46 47 48 52 58 62 66 60 59 60 57 52 53 50 50 55 56 53 60 53
44 47 48 48 51 54 60 61 60 59 58 57 55 53 54 54 52 56 57 58 53 49
47 49 50 52 54 58 59 58 59 59 58 57 56 52 50 52 48 52 52 50 48 46
47 52 52 55 59 61 62 60 64 63 65 54 53 45 48 53 53 51 48 46 50 49
52 55 57 59 62 66 68 70 65 67 63 59 44 45 50 48 47 47 48 51 52 54
54 57 57 62 64 67 71 70 70 64 45 48 47 43 49 46 51 56 56 55 53 54
57 57 59 62 67 68 69 69 57 55 52 54 49 78 81 70 54 50 47 48 46 45
55 59 61 62 60 64 67 69 67 56 55 59 60 74 78 74 46 45 47 46 44 44
54 58 59 62 60 67 66 64 63 56 54 57 55 66 64 67 53 49 47 46 48 49
52 56 60 59 63 62 60 59 60 55 57 45 46 59 61 59 61 60 56 53 52 53
49 57 59 60 62 60 56 45 52 56 48 56 53 59 60 59 66 75 65 58 53 62
52 56 58 60 55 52 49 57 68 66 59 52 54 56 60 61 72 69 66 58 54 58

GFSNIL_sfc_rhum_006.txt.gz
RH
23 22 21 27 28 27 28 31 39 46 47 50 48 48 57 51 44 42 38 39 38 34
29 32 33 34 33 30 34 33 42 52 52 53 51 57 48 41 41 40 39 40 38 34
31 32 34 34 35 36 38 39 44 48 53 52 52 44 42 38 34 36 35 31 36 36
33 33 34 34 35 37 41 40 42 46 50 50 44 41 47 37 34 34 36 36 36 38
33 33 34 35 36 41 42 42 43 45 47 45 43 45 38 35 34 35 37 38 38 37
31 34 36 37 39 41 44 46 47 46 48 45 42 37 33 36 37 38 39 40 42 42
34 36 39 39 40 42 45 48 47 47 49 48 39 34 36 36 40 40 40 44 44 45
35 38 38 41 40 43 49 47 46 46 42 41 40 33 44 44 45 44 42 41 36 37
34 38 41 40 45 44 44 44 44 47 50 48 35 82 76 58 38 38 37 37 36 36
35 40 39 37 37 38 42 45 44 45 51 51 50 75 68 64 39 40 38 39 37 35
35 36 34 35 38 41 42 43 41 41 46 49 47 62 60 61 43 40 39 40 41 41
29 32 32 34 40 42 42 41 40 43 46 48 44 58 58 58 50 50 49 43 40 43
30 31 34 37 42 44 44 42 37 44 46 52 48 59 57 56 56 68 58 48 39 45
31 34 37 41 43 44 44 43 55 56 54 49 52 53 58 59 66 65 60 53 46 43

GFSNIL_sfc_rhum_009.txt.gz
RH
23 23 23 27 27 25 26 27 32 36 41 40 42 50 49 57 62 59 48 43 42 37
30 32 31 30 30 27 30 26 31 38 40 47 46 53 60 49 49 41 42 42 39 37
30 30 31 31 31 31 33 33 34 36 38 42 44 49 44 40 42 43 38 32 38 39
30 31 31 31 31 32 35 33 33 34 38 37 38 37 40 42 44 37 38 40 42 40
31 30 30 31 31 33 35 35 36 37 37 36 36 36 37 38 35 37 39 41 41 40
28 30 31 32 33 33 34 36 38 37 38 36 44 40 39 34 37 42 44 41 46 44
29 30 32 34 35 35 35 38 39 37 37 40 36 31 32 33 38 42 44 48 41 38
29 32 32 35 36 35 39 37 36 37 42 46 40 33 45 44 46 42 41 40 34 34
29 29 32 36 38 38 36 34 34 35 39 49 40 85 73 58 42 38 37 39 37 35
30 30 34 33 30 32 35 36 36 35 35 45 48 77 66 60 41 42 42 40 38 35
28 29 29 29 29 31 35 36 36 35 37 40 54 67 60 60 49 45 43 41 41 40
24 24 26 27 29 32 35 36 36 34 35 37 51 64 59 58 50 51 49 44 41 39
23 24 26 28 31 33 35 36 34 36 38 58 52 63 59 56 56 60 57 49 44 50
24 26 29 33 35 37 39 40 50 52 50 51 54 60 62 58 62 64 60 53 50 48

GFSNIL_sfc_rhum_012.txt.gz
RH
41 42 43 46 42 45 46 50 48 55 56 59 63 62 70 78 82 81 84 69 70 63
47 50 50 46 43 46 47 37 50 54 56 58 58 63 72 80 74 70 67 65 57 58
48 49 48 46 45 44 48 48 51 52 53 56 59 65 66 65 59 64 68 63 60 68
46 50 46 45 44 44 48 49 48 49 52 52 52 53 58 58 56 62 58 60 65 70
48 44 46 44 43 46 48 49 48 50 51 51 51 55 59 59 54 60 71 69 64 65
43 52 45 43 45 45 47 49 50 49 54 51 54 56 58 55 53 56 64 62 68 64
47 45 44 44 47 48 47 50 52 55 53 53 49 45 46 46 61 61 58 62 60 56
44 42 42 48 47 50 51 49 50 52 54 55 56 47 61 59 58 60 57 56 50 48
38 39 46 48 54 55 54 51 47 50 53 55 48 80 70 58 58 57 56 60 56 52
42 47 51 46 44 46 49 51 51 52 50 52 77 79 67 62 55 58 65 63 59 49
46 48 42 42 41 47 48 51 54 52 50 53 68 77 67 61 61 68 65 62 61 60
48 34 36 39 46 47 49 52 54 49 49 56 73 73 65 59 70 75 70 61 59 57
44 34 38 46 48 52 53 51 51 52 54 66 78 72 64 59 88 83 87 72 64 62
44 41 43 49 52 55 58 61 72 71 69 67 80 77 66 63 78 92 90 83 82 83

GFSNIL_sfc_rhum_015.txt.gz
RH
43 52 48 49 49 52 52 54 51 57 57 62 65 74 80 83 85 86 87 86 73 74
49 54 54 50 47 54 53 40 53 56 55 60 66 73 76 82 82 83 74 72 71 66
53 53 52 52 50 48 50 48 54 55 57 57 59 63 72 79 71 65 72 72 70 66
55 56 51 52 52 48 50 47 51 54 56 56 57 60 64 64 56 69 75 74 68 71
53 50 52 51 48 52 49 52 51 52 57 57 60 61 61 63 63 68 72 74 70 68
54 51 49 48 47 50 51 51 50 53 58 60 58 57 61 65 62 65 65 68 68 70
56 51 50 50 51 53 51 50 50 55 60 64 54 52 57 60 64 62 60 62 62 61
53 53 49 51 50 52 55 50 51 57 61 63 60 55 63 59 60 59 60 62 56 55
53 53 55 54 54 55 58 55 55 57 58 60 56 77 72 63 60 56 59 67 65 58
54 55 61 58 54 53 56 57 57 56 57 59 71 79 72 65 56 58 68 70 63 57
62 60 58 59 54 54 55 55 58 60 60 69 71 81 75 67 60 67 73 68 67 66
63 61 63 58 62 62 61 60 60 60 60 77 84 80 72 62 71 76 74 69 67 68
60 61 54 62 67 65 63 59 60 57 65 75 84 79 69 65 93 83 91 79 71 64
68 65 62 61 65 66 67 69 78 76 79 84 84 82 72 67 81 91 93 88 88 87

GFSNIL_sfc_rhum_018.txt.gz
RH
46 48 50 51 54 57 57 56 58 56 57 64 72 76 83 84 84 89 91 86 87 81
56 52 53 52 54 59 56 50 53 56 56 61 62 75 83 86 83 86 84 79 79 76
56 54 54 55 56 54 53 50 54 54 57 58 60 62 72 78 74 71 81 82 75 75
56 58 56 52 53 55 54 52 51 53 55 55 59 62 62 63 63 72 74 75 73 72
59 56 56 55 57 57 53 54 51 53 54 58 62 64 64 65 67 71 74 76 73 69
61 58 50 52 52 58 55 55 53 52 57 61 65 64 62 66 69 68 71 73 71 69
56 49 52 54 60 61 60 58 55 55 58 64 65 59 59 64 68 68 63 62 62 61
52 52 57 64 62 62 63 56 55 58 61 63 63 58 68 64 67 64 63 65 58 60
59 58 63 66 65 61 59 59 61 60 66 66 55 71 77 71 68 61 61 65 67 58
59 62 66 61 62 63 65 64 62 65 66 68 70 78 80 74 62 58 62 74 65 58
64 63 65 68 67 72 70 63 64 63 65 71 68 84 78 72 61 63 69 74 69 69
65 64 67 75 79 74 72 69 69 63 66 70 80 84 78 68 67 70 76 71 70 69
68 68 76 81 83 79 70 65 67 69 67 77 84 86 78 68 87 83 88 80 75 67
78 85 86 84 73 68 72 77 84 85 84 82 85 88 78 73 83 85 86 86 84 84

GFSNIL_sfc_rhum_021.txt.gz
RH
57 49 42 47 52 62 61 61 61 62 60 73 71 82 87 84 88 89 93 90 92 85
52 50 49 53 54 64 65 58 62 60 62 60 64 78 87 86 86 88 91 87 83 83
59 57 50 52 55 54 57 56 61 59 58 59 59 60 69 84 75 71 77 84 82 78
63 62 58 55 53 55 57 58 57 58 58 57 57 64 66 65 63 71 75 78 79 77
66 60 56 51 56 60 54 58 56 58 56 58 60 64 67 68 67 75 79 79 78 75
58 54 56 61 57 56 58 62 58 57 57 57 63 66 71 70 74 78 78 77 80 76
60 57 61 51 55 57 59 60 58 58 58 62 65 67 68 66 73 75 76 79 80 76
66 62 54 59 58 64 64 58 56 58 62 67 65 61 71 68 74 74 71 70 64 64
64 60 66 66 68 68 65 60 60 66 70 73 60 67 77 77 75 69 67 68 68 62
73 69 67 64 66 68 71 78 80 73 67 70 74 78 79 84 74 69 69 65 68 62
67 68 68 66 72 78 81 82 82 73 68 74 71 80 83 85 72 69 67 72 74 71
70 71 75 81 88 91 92 88 75 70 72 73 75 79 85 78 72 69 71 73 72 72
72 82 90 93 93 92 83 70 71 76 79 80 82 82 86 75 86 80 83 83 79 78
87 91 92 92 91 84 75 77 85 88 90 89 87 86 88 80 81 81 84 83 85 81

GFSNIL_sfc_rhum_024.txt.gz
RH
79 73 66 58 59 62 55 67 69 62 65 76 76 78 81 85 86 89 91 89 90 87
86 81 72 70 62 60 58 58 64 61 64 75 73 77 85 86 85 89 92 93 91 88
84 80 79 69 68 59 62 63 62 63 63 65 67 71 80 86 87 89 90 87 87 86
86 83 75 66 63 59 60 58 60 61 63 63 64 65 68 74 74 73 74 79 85 83
84 73 65 64 57 58 58 61 59 61 60 61 64 67 71 72 68 75 78 79 84 81
76 67 59 56 58 60 60 61 60 60 61 62 64 66 73 75 75 78 80 81 83 80
79 68 62 59 68 67 62 62 61 61 62 63 62 67 69 71 77 79 80 82 83 83
79 74 73 70 65 67 66 60 60 63 63 71 78 61 71 74 77 79 81 82 81 80
78 74 78 77 70 72 65 63 64 68 84 90 66 72 77 79 80 77 79 76 74 66
82 81 78 68 68 70 74 79 88 90 88 79 75 76 81 84 89 83 75 74 67 68
77 76 70 72 75 83 87 92 94 92 84 78 70 79 82 85 92 84 78 71 69 72
74 75 78 85 92 94 96 95 93 86 75 76 80 80 81 88 92 82 75 69 74 72
81 86 91 94 96 95 95 91 79 78 79 82 87 84 83 89 91 86 81 77 77 78
88 92 92 93 95 92 89 88 88 88 87 87 88 87 84 87 88 84 83 80 81 79

GFSNIL_sfc_rhum_027.txt.gz
RH
74 81 75 70 66 65 63 62 59 58 55 63 73 64 62 62 58 63 61 62 59 52
77 77 78 76 72 71 66 57 64 54 54 74 72 72 67 60 63 65 65 64 64 62
85 83 81 77 70 66 62 55 56 54 71 66 68 64 68 68 64 66 65 59 63 62
85 82 77 74 70 70 66 66 60 64 56 61 60 54 57 57 60 64 61 58 57 56
82 79 78 75 75 72 71 63 58 58 56 50 52 52 52 56 50 56 55 53 57 56
77 76 75 72 72 68 60 61 56 50 48 51 51 50 58 61 58 58 56 54 56 54
75 72 69 64 59 61 61 61 52 50 47 54 53 56 74 68 58 61 57 59 60 57
71 66 60 61 67 67 65 61 59 66 64 73 79 83 86 69 59 59 59 62 59 60
67 62 65 68 73 72 66 64 53 65 81 83 81 91 88 75 59 58 59 59 58 57
65 64 70 71 70 70 66 71 79 85 88 87 85 86 82 83 59 60 60 60 56 52
65 64 63 65 77 83 86 91 91 89 80 82 76 83 86 83 62 60 59 60 58 57
63 65 69 77 88 92 92 94 84 76 84 81 87 89 84 79 65 64 61 58 57 56
67 71 79 81 86 85 80 80 85 91 90 92 82 77 84 79 69 75 70 63 58 76
70 74 75 82 88 90 91 91 89 77 72 69 70 67 82 84 75 77 75 69 62 59

GFSNIL_sfc_rhum_030.txt.gz
RH
63 68 67 68 74 73 69 69 55 69 62 50 63 62 80 77 57 51 45 47 46 36
66 67 71 73 73 71 64 53 66 74 63 58 67 75 83 60 51 52 52 51 49 42
65 66 76 76 76 72 64 57 58 63 62 79 80 84 67 51 50 49 52 46 46 43
69 78 82 78 76 69 62 57 59 68 86 78 76 59 59 52 42 61 54 49 45 44
76 76 77 75 74 72 65 69 73 76 68 56 49 47 50 44 47 56 61 48 45 41
69 73 76 77 78 73 72 77 75 66 55 53 52 44 53 52 66 79 59 44 43 42
67 66 68 71 72 68 66 68 62 60 52 56 44 40 58 74 78 67 51 50 47 44
61 61 60 61 59 58 62 59 60 59 65 52 58 65 80 76 76 61 52 50 45 46
58 55 56 56 59 63 61 58 65 58 74 75 74 98 98 93 76 58 52 51 47 44
56 55 58 54 53 57 62 68 72 73 72 78 74 95 93 91 70 72 64 54 49 43
54 54 52 53 59 72 75 80 77 79 71 67 66 89 90 94 88 71 53 48 45 44
52 53 54 57 63 67 64 67 71 68 68 78 78 87 94 91 63 54 51 44 44 43
52 55 60 63 68 67 66 70 77 83 88 93 90 84 90 76 63 62 58 53 48 64
57 64 67 72 80 83 85 84 80 69 60 56 59 57 80 83 69 68 67 61 56 53

GFSNIL_sfc_rhum_033.txt.gz
RH
60 59 60 67 65 71 73 84 91 85 70 66 75 73 76 87 88 85 76 62 44 42
60 66 61 66 65 71 74 74 74 62 62 68 75 86 91 90 84 85 66 53 53 51
60 61 68 73 78 77 70 66 59 62 64 64 77 91 90 91 86 69 66 55 65 56
66 75 73 78 78 74 70 62 57 64 66 71 82 86 85 83 64 57 53 64 63 55
81 84 82 83 78 79 76 68 67 60 64 75 80 77 75 73 55 50 59 80 72 59
79 84 87 88 88 86 80 77 70 70 76 79 78 71 72 58 48 67 77 76 65 51
66 76 78 79 77 77 73 74 74 76 78 79 67 57 54 64 72 79 80 78 62 50
61 59 60 67 69 72 74 68 68 72 70 71 61 58 64 78 82 81 80 74 56 53
53 52 55 56 57 60 60 59 58 60 56 67 64 97 95 82 70 79 80 74 64 58
51 54 56 52 51 52 54 56 63 69 74 76 80 97 96 93 78 83 85 85 84 65
51 51 49 49 51 56 58 60 62 60 56 57 58 91 92 91 90 93 89 81 60 50
48 49 50 53 58 58 59 58 60 56 56 62 70 92 90 94 89 69 59 49 45 44
46 49 56 65 67 71 67 70 65 76 80 86 82 82 93 84 64 66 63 57 51 64
55 61 64 66 68 70 69 70 74 67 56 50 52 57 85 87 72 83 86 78 73 69

GFSNIL_sfc_rhum_039.txt.gz
RH
65 64 60 81 93 94 92 93 96 90 90 89 94 96 95 95 94 92 93 94 97 97
61 69 86 86 89 89 91 95 95 92 91 96 96 95 94 93 92 92 94 96 94 96
71 70 84 83 90 93 96 94 96 97 96 96 95 93 89 90 92 92 96 94 95 87
80 79 76 90 96 97 96 93 94 95 95 91 92 90 86 89 92 90 93 91 87 83
93 95 98 97 98 98 92 91 92 92 89 85 85 88 88 90 87 89 92 91 91 84
96 92 97 98 97 94 94 92 84 82 83 81 88 88 89 86 89 91 90 89 90 84
97 96 97 96 96 96 93 94 95 86 84 87 89 85 84 87 91 92 91 90 84 78
97 96 97 94 90 86 87 88 87 89 90 89 87 85 88 91 93 88 89 85 79 79
90 92 92 90 89 87 85 83 85 88 91 93 83 95 92 89 87 80 81 89 90 88
79 80 83 86 85 83 84 89 92 93 92 93 90 92 92 90 90 93 92 92 93 86
72 73 73 75 79 85 88 90 92 92 94 94 92 92 90 92 93 94 93 92 93 95
70 69 71 76 80 84 85 87 87 84 88 91 93 94 95 94 95 92 86 76 79 79
66 70 80 87 90 90 89 85 83 88 88 94 95 94 90 88 96 90 91 80 77 79
75 82 84 88 90 92 94 92 93 92 95 89 82 80 75 74 82 90 90 89 85 85

GFSNIL_sfc_rhum_042.txt.gz
RH
68 70 74 68 75 86 85 87 94 95 93 93 92 92 91 89 91 91 94 91 92 96
67 73 76 77 83 86 85 88 95 95 97 96 95 94 94 95 92 92 93 92 92 94
67 69 74 80 86 93 98 97 97 98 97 96 96 96 95 95 93 91 94 92 93 95
70 71 80 91 92 97 97 98 98 97 96 96 95 94 91 91 92 90 93 94 94 91
91 95 96 98 98 99 98 98 97 96 96 91 90 91 90 92 91 91 90 94 92 88
92 95 92 96 96 97 96 97 94 95 94 93 92 92 91 90 91 89 90 91 89 89
91 91 89 89 96 97 96 96 96 94 92 91 92 88 88 88 90 92 92 89 86 85
90 91 95 98 97 96 96 96 94 96 95 92 90 88 90 90 93 93 94 91 82 81
96 96 96 94 93 93 94 94 93 94 93 94 89 97 96 92 91 88 89 89 90 85
96 97 95 93 92 92 90 89 92 95 95 94 94 96 96 94 90 89 93 92 89 88
94 95 94 93 94 94 90 91 96 96 95 93 91 95 93 93 94 95 95 92 86 80
85 86 86 87 90 90 90 93 94 94 94 94 98 92 94 94 97 91 86 72 72 74
74 76 82 87 89 91 90 89 89 95 94 96 99 96 94 91 88 82 78 77 73 72
80 83 84 89 89 93 95 95 97 96 89 83 82 81 77 74 78 86 84 80 80 85

GFSNIL_sfc_rhum_045.txt.gz
RH
66 64 65 68 78 88 85 85 91 94 92 91 97 98 98 97 96 94 93 93 89 89
66 69 71 76 84 87 84 86 92 94 93 95 98 96 97 97 96 94 90 90 90 90
71 69 72 81 91 90 88 96 99 99 98 99 99 97 98 98 94 91 93 94 95 94
71 72 78 82 80 90 97 97 98 98 99 99 99 99 97 96 95 90 95 95 94 96
76 78 83 88 90 95 95 98 98 98 99 98 98 97 95 95 94 92 96 96 97 95
82 84 83 80 86 90 89 95 96 96 96 94 96 96 94 92 95 96 95 95 95 92
83 83 81 86 84 88 93 93 91 96 95 96 95 94 95 95 97 96 95 93 89 87
80 80 89 92 93 94 96 95 96 98 98 97 96 95 95 94 95 94 95 92 87 85
93 97 98 98 99 99 99 99 98 98 98 98 97 100 96 94 94 93 94 95 90 90
97 98 98 98 98 99 98 97 98 98 97 98 97 97 97 96 93 95 96 94 90 86
98 98 97 96 97 97 95 97 98 98 96 96 97 98 98 96 94 94 93 91 88 80
98 97 95 95 93 92 92 93 95 93 93 93 99 97 96 94 94 86 80 73 74 74
90 91 93 96 95 96 95 97 95 98 98 98 99 95 95 94 92 86 81 69 68 73
83 88 92 94 92 94 96 97 98 95 92 88 88 90 87 82 84 82 77 69 72 78

GFSNIL_sfc_rhum_048.txt.gz
RH
74 74 73 73 77 88 90 93 91 94 95 94 94 96 97 98 97 97 96 94 94 87
75 74 75 79 87 93 94 93 92 93 94 95 96 96 98 98 99 99 98 98 94 86
76 78 79 88 88 91 92 92 92 94 96 96 96 97 98 97 96 97 97 96 93 92
78 77 85 82 85 90 90 89 91 93 95 97 98 98 98 99 99 98 98 95 94 94
75 78 79 78 76 77 76 89 88 91 95 95 96 98 98 99 98 98 98 95 94 97
77 80 83 80 77 75 88 86 89 89 94 96 98 98 98 97 96 96 94 95 95 97
79 78 76 77 76 79 88 89 90 93 92 95 97 97 98 97 97 97 97 97 95 95
78 79 77 78 80 84 92 92 90 94 97 98 98 98 98 97 98 98 99 97 94 92
79 81 83 82 84 88 92 92 95 98 98 98 98 100 100 98 98 96 97 98 93 94
82 85 87 88 92 96 97 99 99 99 99 99 99 100 99 99 96 97 97 94 95 90
93 93 94 98 98 99 99 99 99 99 99 99 99 99 99 98 97 96 95 91 89 88
96 98 98 99 99 99 98 99 99 99 99 98 99 99 97 95 91 85 84 81 83 82
98 98 98 98 98 98 96 98 96 98 98 98 98 97 94 88 87 88 82 78 80 79
93 95 93 93 93 94 97 97 96 94 90 90 93 94 91 87 86 84 80 74 72 69

GFSNIL_sfc_rhum_051.txt.gz
RH
68 65 64 64 60 67 68 67 69 74 72 71 73 75 79 82 83 83 86 84 83 90
70 68 68 68 70 70 70 67 71 72 72 74 75 77 80 84 84 87 89 92 92 96
72 70 69 71 74 71 71 71 70 71 72 73 76 79 82 85 85 89 95 94 97 96
74 73 73 74 72 70 70 70 70 69 71 73 74 78 85 84 85 98 96 93 98 94
76 74 77 77 73 73 73 74 72 71 70 70 73 77 89 91 97 98 98 97 98 97
77 80 78 75 73 71 71 72 69 72 75 73 79 82 88 89 97 98 94 91 94 95
73 72 73 72 71 72 68 69 69 74 75 78 80 84 90 91 90 90 88 88 93 94
67 66 65 70 71 72 72 70 69 73 75 76 81 93 94 95 96 92 94 95 96 94
64 64 69 67 70 72 73 72 76 77 79 89 95 100 100 98 96 92 97 98 98 97
66 68 71 69 67 69 73 74 82 87 91 97 98 100 100 100 98 98 98 97 96 89
70 70 70 73 75 78 83 90 97 99 99 99 99 100 100 100 98 98 96 94 90 89
73 73 77 85 98 99 99 99 99 99 99 98 99 99 99 95 93 92 93 88 85 82
81 94 97 98 98 99 98 98 96 98 98 99 98 98 95 90 90 92 91 88 87 82
92 97 96 95 94 94 95 94 96 96 95 95 96 96 93 90 86 85 84 80 78 83

GFSNIL_sfc_rhum_057.txt.gz
RH
69 69 62 67 61 62 68 69 71 63 60 62 63 64 66 67 68 72 73 72 66 66
75 71 63 62 60 58 59 53 63 66 65 63 63 64 65 65 66 65 68 71 69 65
74 71 63 61 60 60 58 56 57 63 62 62 62 62 63 63 62 63 64 61 65 63
68 71 68 66 61 58 58 55 52 51 55 55 55 57 59 60 60 61 61 62 63 64
63 63 67 67 63 63 60 56 53 50 49 50 51 53 56 59 55 60 62 61 64 66
59 60 62 63 62 60 60 59 56 52 54 52 54 54 55 56 57 59 59 61 64 65
57 57 58 59 60 61 59 59 58 57 55 56 54 52 52 51 54 56 60 65 68 70
55 55 55 58 59 59 61 57 55 58 58 58 56 52 56 53 57 64 69 68 64 65
49 52 56 56 59 61 61 58 58 58 59 61 52 67 78 71 62 66 71 76 72 73
46 50 54 54 53 56 60 59 59 60 60 61 59 80 90 92 65 69 74 77 81 97
45 47 49 52 53 57 58 61 62 61 61 62 60 87 97 100 81 80 88 93 98 99
42 44 46 50 55 58 60 62 64 64 65 75 86 100 100 100 99 99 99 98 98 96
38 41 46 50 56 60 62 71 87 95 97 99 99 100 100 99 98 98 98 98 97 96
39 42 47 51 55 82 87 93 96 96 97 97 97 98 97 96 96 96 96 96 97 98

GFSNIL_sfc_rhum_060.txt.gz
RH
76 76 73 70 68 68 63 64 68 77 72 73 70 71 80 85 83 80 86 83 75 84
79 77 77 74 68 67 65 63 75 74 75 70 69 73 79 82 82 85 80 77 85 79
79 76 75 74 75 71 68 67 67 76 76 72 69 73 77 82 78 78 78 79 80 78
77 73 76 74 73 72 70 67 67 66 69 71 74 74 74 75 73 76 76 74 75 77
80 76 78 77 72 70 69 67 65 63 63 66 67 68 70 73 67 72 74 74 76 74
79 80 80 77 72 69 67 67 65 61 60 59 63 64 64 65 66 67 66 66 68 69
72 74 74 74 74 72 69 67 65 64 62 60 56 56 57 57 62 64 63 65 66 66
61 65 68 71 70 70 70 68 66 66 64 62 60 55 58 58 63 66 67 67 65 66
52 57 63 64 68 70 71 69 69 69 69 69 61 70 79 73 68 66 67 69 69 74
51 53 59 62 63 66 69 70 71 70 70 71 70 82 84 85 67 70 73 74 78 85
51 52 52 59 63 66 67 71 72 72 73 73 69 93 88 91 76 74 75 85 89 85
46 51 52 56 62 65 68 71 73 72 75 76 75 100 91 90 94 98 99 98 98 99
35 46 51 56 61 66 69 72 85 96 97 99 99 100 100 99 99 99 98 97 98 98
78 55 52 58 64 71 90 96 98 98 98 97 98 98 98 97 97 97 96 96 97 98

GFSNIL_sfc_rhum_066.txt.gz
RH
83 85 83 86 83 86 77 69 69 72 71 73 72 76 78 92 89 84 90 90 92 83
90 86 82 83 86 81 87 75 78 73 75 79 85 82 82 81 86 89 83 88 90 87
84 83 83 80 81 81 80 81 82 83 79 79 78 84 90 91 89 87 85 88 90 86
83 81 79 78 77 75 77 76 76 84 80 78 78 80 82 85 85 88 82 84 90 89
86 82 84 83 80 78 75 75 70 72 82 82 78 76 78 74 70 82 83 81 85 84
89 88 85 82 80 80 78 76 75 68 68 72 81 81 79 76 74 73 80 80 82 81
87 86 85 81 80 80 78 78 75 75 72 69 64 68 74 75 78 74 73 76 79 78
89 87 84 84 81 80 81 75 73 76 76 74 72 65 67 67 70 73 76 76 74 77
85 88 89 84 86 84 81 82 77 77 78 81 76 82 85 77 73 71 72 77 80 80
77 81 83 86 86 87 85 82 82 79 79 75 77 88 89 89 74 75 78 77 76 77
79 79 80 79 81 86 87 88 86 86 84 82 78 88 92 92 80 76 75 78 79 78
77 79 81 84 87 88 93 87 86 85 88 88 84 95 98 97 87 85 80 75 88 91
72 76 81 84 88 88 92 94 84 87 86 88 88 100 100 99 89 91 92 99 99 100
74 76 78 84 86 93 96 98 99 99 98 98 98 98 99 100 96 97 99 99 99 99

GFSNIL_sfc_rhum_069.txt.gz
RH
92 86 88 88 88 88 86 83 79 85 90 88 89 91 92 93 94 92 88 83 81 73
86 93 92 91 88 83 79 75 78 80 85 87 87 87 88 91 90 89 78 81 85 80
89 84 92 94 95 93 93 87 81 77 77 79 82 83 84 82 76 84 78 82 92 92
89 92 93 88 89 92 92 90 89 84 79 78 79 78 77 75 75 81 77 84 89 84
94 89 88 88 84 85 86 89 83 88 88 79 73 72 78 81 80 88 88 83 87 86
96 95 93 88 82 79 77 80 83 78 80 81 83 79 76 74 72 76 85 86 88 85
94 94 93 92 92 88 82 77 75 77 75 74 74 77 80 80 81 77 74 74 76 77
89 89 89 89 89 87 88 84 79 77 76 73 71 68 70 73 77 78 78 76 74 74
77 82 88 90 89 89 87 86 84 85 83 80 73 79 85 77 70 71 76 78 77 76
77 76 79 79 80 90 90 87 87 86 84 83 82 89 90 91 74 73 75 76 75 75
75 75 76 78 80 84 89 93 92 90 86 86 80 91 96 99 90 85 79 78 80 80
74 74 75 79 82 84 89 92 93 91 92 90 89 94 96 100 92 93 90 85 83 84
74 76 78 80 84 85 88 93 94 95 97 95 95 95 96 98 96 94 93 89 87 99
78 77 78 80 82 86 90 95 97 96 93 92 94 93 96 98 99 98 98 100 99 99

GFSNIL_sfc_rhum_072.txt.gz
RH
96 96 89 92 93 94 92 91 91 93 94 94 91 91 92 91 94 94 94 88 87 79
97 96 91 92 92 93 90 86 90 92 96 94 94 94 94 95 93 94 93 95 94 90
96 96 96 93 91 92 90 86 86 86 89 93 94 96 95 94 92 94 95 94 95 92
97 96 96 96 96 90 90 87 85 83 86 88 90 91 94 89 88 92 90 90 90 86
92 96 97 96 94 95 91 92 91 86 85 83 83 84 87 87 82 86 87 86 85 80
93 94 97 96 94 91 92 92 92 90 91 86 82 82 83 81 82 81 80 79 78 80
91 93 91 90 92 92 89 86 84 82 82 82 84 86 83 80 82 80 79 80 78 76
88 92 91 92 92 90 89 85 81 83 85 81 78 76 81 82 84 85 82 79 76 76
78 80 85 87 91 94 92 90 88 86 82 84 77 85 87 83 79 78 80 82 80 79
75 74 76 77 78 84 90 92 93 93 91 89 85 97 94 92 79 76 75 75 75 75
75 76 77 80 81 84 88 91 93 92 92 92 90 95 96 99 93 86 81 80 80 80
77 78 78 82 84 84 87 90 94 94 93 90 88 92 94 94 94 97 93 87 86 89
76 76 80 81 84 84 87 89 89 87 88 88 90 91 93 94 93 98 98 95 98 98
75 78 79 82 82 84 85 85 90 89 89 88 90 89 90 92 95 99 96 95 96 95

GFSNIL_sfc_rhum_075.txt.gz
RH
87 88 87 90 90 89 93 91 95 96 94 92 92 91 88 88 85 85 85 80 74 67
87 87 86 87 82 89 89 88 90 93 97 94 92 92 92 92 88 87 88 88 84 82
78 82 83 84 89 91 92 90 88 86 91 96 96 95 95 92 89 90 92 92 92 91
83 80 79 83 86 87 90 90 90 88 92 92 91 91 95 95 93 92 85 86 87 87
84 84 83 82 79 79 81 85 85 86 87 86 83 80 85 87 92 94 94 91 92 91
81 82 82 82 78 77 76 75 77 78 80 81 76 75 85 82 81 82 84 85 88 86
90 88 88 84 81 79 75 74 73 73 72 72 70 74 76 76 79 76 72 74 76 75
88 88 90 91 90 88 84 77 73 74 74 72 72 75 79 77 80 79 76 73 68 68
73 76 82 84 88 88 90 93 91 91 88 88 83 97 99 95 80 77 76 76 73 70
69 72 75 74 77 83 88 88 91 92 91 95 89 94 94 95 88 88 83 82 80 77
68 69 69 72 74 79 83 90 91 89 86 88 81 92 93 94 87 90 92 89 85 86
70 72 74 78 80 82 85 86 84 83 83 84 85 88 90 90 84 86 92 94 91 91
69 74 77 79 81 79 78 78 76 79 82 85 82 86 88 85 86 94 90 87 88 93
68 74 73 73 75 74 76 77 81 81 81 81 84 82 86 86 85 89 88 89 90 91

GFSNIL_sfc_rhum_078.txt.gz
RH
71 78 77 76 70 78 86 87 88 96 94 88 86 85 84 84 82 78 76 71 66 59
74 74 78 80 80 80 79 78 89 96 97 95 90 87 87 88 86 86 84 84 79 69
67 70 74 78 76 66 72 78 82 92 95 96 92 87 88 87 84 87 87 85 87 84
63 69 74 73 74 75 80 82 85 79 86 91 95 93 93 90 86 88 85 85 87 82
70 67 71 73 76 79 79 81 80 81 83 87 92 94 95 94 93 93 87 84 86 84
79 81 76 69 67 70 74 78 79 76 81 83 85 86 87 83 82 83 84 85 82 81
86 82 81 77 72 69 66 70 74 74 73 73 73 74 75 71 72 79 79 74 78 77
84 85 87 90 90 89 82 73 64 67 68 71 73 79 84 73 76 80 75 74 72 70
75 78 82 84 88 90 90 91 89 91 88 86 77 94 94 90 79 81 80 79 76 74
67 69 73 76 80 86 91 88 89 89 88 88 87 92 91 93 84 87 92 93 93 91
67 65 64 68 75 82 83 86 85 84 83 83 81 88 89 93 82 84 92 86 88 90
64 66 66 73 76 74 73 75 77 76 77 77 80 86 88 82 79 87 85 82 84 84
66 64 70 71 72 69 67 68 67 69 71 80 72 86 85 79 81 87 84 82 81 84
62 67 70 68 66 66 68 69 73 72 72 71 80 78 83 81 74 81 82 84 86 87

GFSNIL_sfc_rhum_081.txt.gz
RH
53 57 57 61 64 78 88 92 96 96 96 95 95 93 90 79 73 75 74 72 69 64
59 61 63 66 72 79 76 82 88 95 96 95 94 94 93 92 82 78 80 80 74 72
60 61 66 69 71 71 74 72 81 90 93 95 93 89 91 90 89 88 90 90 91 89
69 63 66 69 67 67 72 75 81 84 92 96 95 93 90 85 88 88 86 84 84 83
68 68 67 68 63 65 69 74 81 82 81 91 94 94 95 94 88 85 82 87 86 85
73 73 71 71 70 71 72 79 80 83 81 79 84 90 91 90 89 86 87 85 87 82
80 70 67 67 71 79 77 78 80 78 80 80 80 81 87 90 92 90 87 82 79 73
88 87 88 90 85 83 86 87 83 82 87 81 78 79 84 81 89 87 83 74 80 80
82 84 88 90 92 90 89 87 86 89 86 85 78 93 92 87 76 76 84 91 89 87
77 80 83 85 86 90 91 89 90 89 85 86 86 92 91 93 80 88 89 88 88 84
70 73 78 81 83 85 86 88 88 88 85 85 83 90 92 95 90 88 84 84 85 86
66 68 68 73 76 74 75 77 77 77 78 78 83 86 88 86 81 81 81 78 82 77
68 68 72 73 74 68 66 66 66 69 72 78 78 84 85 77 78 83 82 80 80 84
66 71 70 69 68 66 66 66 70 70 69 72 78 81 83 83 72 78 81 82 86 86

GFSNIL_sfc_rhum_084.txt.gz
RH
69 72 74 78 85 91 95 95 94 98 98 99 96 95 95 92 94 92 91 81 83 80
70 73 80 81 81 86 90 91 94 96 98 98 98 96 95 93 94 90 87 88 84 82
72 73 77 80 84 87 90 91 94 96 96 97 98 99 98 98 96 95 95 95 90 90
74 77 79 79 80 80 84 86 91 93 95 96 97 97 98 98 98 97 96 93 92 93
80 80 82 80 79 83 84 86 89 92 94 94 95 96 96 94 92 93 96 95 96 94
82 82 82 78 78 77 81 88 90 90 92 93 95 95 95 92 94 92 86 86 89 88
94 90 91 88 83 84 83 87 88 89 88 90 86 86 89 92 94 93 89 88 89 88
92 90 91 92 90 89 88 85 82 83 83 82 81 83 87 84 94 97 94 93 91 93
88 90 91 90 90 90 90 89 88 88 88 88 82 94 94 89 89 85 86 90 91 81
88 88 88 85 86 89 91 89 89 89 87 90 90 95 96 90 82 85 87 89 87 80
85 87 86 87 89 89 89 90 89 87 85 88 87 95 93 90 86 87 85 86 86 86
81 84 85 86 87 88 88 90 90 87 86 88 90 92 93 84 84 86 87 84 85 84
82 80 80 80 79 77 75 80 82 81 82 84 86 89 85 79 81 86 87 86 86 85
91 88 83 76 73 73 76 77 81 80 81 82 84 85 84 82 80 86 87 88 91 87

GFSNIL_sfc_rhum_087.txt.gz
RH
84 81 89 90 94 96 94 91 94 98 98 97 95 98 96 97 95 94 97 94 91 88
80 83 92 95 94 93 92 93 97 98 99 98 98 97 96 96 95 95 95 97 95 90
80 86 90 89 93 97 96 91 97 98 98 99 99 98 96 95 96 94 96 97 97 95
80 83 85 89 92 93 95 94 96 96 97 98 99 99 98 96 93 96 97 98 97 95
84 86 89 88 87 91 94 95 96 96 95 96 98 99 99 98 95 95 97 98 97 96
94 90 90 88 88 89 91 94 96 97 97 96 96 97 98 97 97 96 96 97 97 98
97 95 94 92 92 92 91 91 89 89 91 89 87 91 96 96 97 98 96 94 96 94
96 94 93 93 92 89 86 83 82 85 88 88 85 86 90 95 98 97 97 97 92 93
92 91 93 93 93 92 91 90 88 90 89 90 87 96 97 92 88 88 90 94 92 89
89 88 90 89 90 92 92 90 91 92 92 97 95 95 93 90 85 88 90 90 89 86
87 88 87 88 90 91 89 90 91 90 91 94 93 93 92 90 86 88 87 88 88 91
89 88 87 90 92 92 91 92 92 89 89 92 95 92 90 84 86 88 89 86 88 88
94 92 93 94 95 94 92 92 92 94 95 92 95 94 91 82 83 89 89 87 87 88
99 99 98 93 91 92 92 91 92 91 92 92 91 90 84 83 84 88 89 90 91 89

GFSNIL_sfc_rhum_090.txt.gz
RH
88 88 91 95 96 95 96 96 98 99 98 98 97 97 96 96 96 97 94 93 94 92
88 90 94 96 96 97 93 92 95 98 98 98 98 98 98 98 98 97 96 96 96 90
86 87 91 96 96 94 96 94 95 96 98 98 98 98 98 98 97 96 97 96 98 98
88 87 90 94 96 94 95 95 95 94 98 99 99 99 99 99 98 95 97 98 97 98
90 92 94 96 95 96 95 94 95 97 97 98 99 99 99 98 98 96 98 98 98 99
94 94 94 94 96 96 97 98 97 97 97 97 98 99 99 98 97 98 93 95 96 98
97 96 96 94 94 93 90 91 91 91 92 92 92 97 99 98 99 98 97 97 97 97
97 95 94 94 92 90 88 86 86 89 90 89 88 88 98 99 99 98 98 96 93 96
95 94 95 94 94 92 92 92 91 93 94 96 92 98 98 96 94 93 94 96 94 94
91 93 92 90 91 93 95 93 95 95 94 96 95 95 93 92 90 93 94 93 92 92
88 90 89 89 91 93 93 94 95 96 94 94 93 93 92 91 88 90 90 91 93 95
95 94 91 92 93 92 93 94 95 94 94 94 95 90 90 86 88 92 94 92 92 94
98 97 99 97 95 95 94 93 91 94 97 97 97 92 91 85 88 92 92 92 94 93
98 99 100 98 98 96 95 94 93 93 95 95 96 98 96 92 90 91 93 94 96 98

GFSNIL_sfc_rhum_093.txt.gz
RH
92 91 93 94 95 92 87 89 92 95 94 98 97 98 97 97 96 96 96 95 95 92
94 94 94 96 95 91 89 95 92 98 99 99 99 98 98 98 98 98 97 95 95 90
94 94 96 97 98 98 98 97 97 99 99 99 99 99 99 98 97 97 97 97 95 96
95 96 96 97 98 98 97 96 97 96 96 94 98 96 98 98 97 98 98 96 95 94
96 96 95 98 98 97 98 98 97 96 98 99 99 99 99 99 99 98 98 98 96 95
97 95 95 96 97 96 98 98 98 98 98 98 99 99 99 99 99 99 97 97 97 98
98 98 98 98 97 96 95 95 94 93 94 94 96 99 99 99 99 99 99 97 96 98
98 97 96 96 93 91 90 90 90 91 92 92 91 91 97 99 99 98 98 98 97 98
97 94 95 96 95 94 94 94 94 95 94 96 90 97 99 99 97 95 96 97 97 96
94 93 93 91 92 95 96 95 96 95 94 97 95 95 96 96 94 95 96 97 97 94
93 97 90 91 93 95 95 96 96 95 94 95 93 94 94 93 92 94 96 97 97 96
94 97 93 94 95 95 94 96 97 94 94 95 97 93 92 90 92 95 97 96 95 94
99 98 98 97 96 95 94 94 92 95 96 97 97 93 92 89 90 94 94 93 95 95
97 99 99 97 97 97 96 95 95 94 95 95 95 95 92 89 93 95 95 95 97 98

GFSNIL_sfc_rhum_096.txt.gz
RH
95 96 96 94 92 92 95 96 96 96 94 91 97 97 95 97 96 96 97 97 95 93
96 97 97 98 97 94 89 89 92 93 94 96 96 96 98 98 98 97 96 97 95 92
95 96 97 98 97 93 90 90 89 93 95 98 98 98 98 98 97 98 97 97 96 94
98 98 97 97 97 95 93 95 95 94 98 99 99 99 99 99 99 98 98 98 98 95
98 97 98 98 98 98 98 98 97 96 96 95 97 97 99 98 98 98 98 96 97 96
99 98 98 98 98 98 98 99 98 98 97 97 99 99 99 99 99 98 98 96 97 95
97 99 98 97 98 98 96 98 98 96 96 96 96 97 98 99 99 99 99 99 96 95
95 95 97 98 97 95 93 93 92 93 93 92 90 90 97 98 99 99 98 98 97 99
94 91 95 97 97 96 96 94 94 95 94 95 90 97 99 100 98 97 97 98 98 97
93 95 96 98 94 96 97 95 96 95 94 97 95 96 96 96 95 97 98 98 97 96
93 96 99 100 95 96 96 96 96 96 94 95 93 94 95 95 94 96 98 97 96 96
98 98 100 98 98 97 94 96 97 95 95 96 97 93 93 92 93 95 97 96 95 94
94 96 97 98 98 98 96 96 94 96 96 95 96 93 90 88 90 95 94 95 96 98
94 95 97 97 97 96 96 96 95 94 95 95 96 95 91 89 91 93 93 94 96 97

GFSNIL_sfc_rhum_099.txt.gz
RH
91 91 85 82 76 75 76 84 89 90 94 93 87 91 92 94 92 94 96 94 93 92
93 93 93 85 84 86 89 92 95 92 94 93 93 92 90 95 96 96 96 96 95 95
91 90 92 92 95 91 92 96 94 94 94 93 94 88 92 94 93 95 96 95 96 95
94 95 95 94 90 92 94 96 91 90 88 88 94 92 98 98 97 98 97 97 97 95
96 94 93 94 90 93 94 92 88 86 89 89 97 98 98 98 98 96 98 98 98 98
96 96 95 95 91 91 95 94 91 91 90 92 92 93 96 93 91 92 94 92 94 96
95 96 96 91 91 93 93 93 91 90 93 96 97 96 97 98 98 98 94 97 97 95
91 91 92 92 96 95 96 94 91 92 92 91 89 88 94 93 96 96 97 97 95 98
92 91 94 94 96 96 96 95 94 95 94 94 87 97 99 98 95 95 96 98 98 97
92 94 93 93 93 98 98 95 96 95 94 96 93 97 97 96 92 95 96 96 96 95
90 95 96 96 100 100 100 96 96 96 94 94 93 96 96 95 92 95 96 96 95 97
92 94 96 99 100 100 98 96 96 94 94 95 95 94 93 90 90 94 96 95 95 95
95 95 96 97 97 99 98 97 94 95 96 96 96 94 92 88 89 94 95 93 96 96
95 96 97 97 97 97 97 97 95 94 95 94 95 96 92 89 91 92 92 94 96 95

GFSNIL_sfc_rhum_102.txt.gz
RH
68 63 65 71 79 80 83 76 78 81 73 72 79 86 89 89 81 79 89 89 91 92
73 68 81 82 85 81 69 61 67 73 84 92 92 88 90 87 80 87 93 92 90 91
83 80 79 84 84 82 70 70 75 80 86 94 93 90 91 84 86 93 94 92 93 91
91 86 85 88 88 91 88 82 87 86 96 95 95 92 92 90 81 84 92 91 94 91
94 96 96 95 94 91 93 89 86 88 94 95 90 88 87 86 87 91 97 96 96 94
92 95 96 97 95 92 82 80 78 79 87 88 83 82 92 92 96 94 94 94 96 93
94 95 95 95 96 94 86 85 79 79 86 88 91 90 92 93 93 93 85 79 83 79
92 93 92 93 94 96 95 94 91 93 92 90 86 85 94 95 93 95 96 97 92 96
94 89 91 92 93 94 94 95 92 93 90 92 89 98 99 97 94 92 93 96 93 93
95 94 95 94 93 98 97 96 97 95 94 96 95 98 97 97 90 93 94 94 92 89
93 92 94 95 100 100 100 100 100 98 95 93 92 96 96 95 92 94 94 94 94 95
96 95 93 95 98 100 98 97 98 98 96 95 95 94 93 90 91 94 96 94 94 93
100 98 96 99 98 98 97 97 95 96 95 95 95 93 91 88 90 95 93 92 94 95
96 100 100 100 100 100 99 97 97 96 96 95 95 94 91 90 92 94 94 94 96 94

GFSNIL_sfc_rhum_105.txt.gz
RH
84 83 75 68 58 59 67 76 87 91 91 87 82 74 82 84 84 83 85 83 79 80
87 89 80 71 63 67 70 70 89 91 90 91 88 86 87 89 87 85 84 81 84 87
88 89 83 67 67 66 70 72 74 84 89 84 79 77 81 90 84 87 82 80 80 79
90 90 91 77 68 66 67 67 70 76 82 82 81 85 84 79 90 86 83 83 83 88
88 89 92 94 90 74 73 75 70 77 73 74 81 83 92 92 91 88 82 80 91 89
89 90 92 93 94 95 83 90 89 77 74 75 81 86 91 91 89 88 79 76 83 90
93 92 93 92 94 92 96 94 92 84 80 80 80 79 80 87 92 87 85 89 90 88
96 90 93 94 96 93 95 92 94 92 92 91 88 88 88 90 95 95 93 95 88 95
88 89 92 94 95 95 92 94 92 95 95 93 88 99 100 97 95 96 97 98 94 91
95 95 96 93 94 98 96 94 98 97 94 96 96 98 99 97 92 95 95 94 94 88
97 98 98 96 94 97 98 100 99 96 97 96 93 97 96 94 92 94 95 95 95 96
98 98 97 96 94 95 95 96 97 97 96 98 97 99 95 90 91 93 95 93 93 93
98 100 100 100 100 100 98 97 95 95 96 96 97 99 94 88 90 95 93 92 93 93
94 97 100 100 100 100 100 100 97 97 97 96 95 96 94 91 93 93 92 93 95 95

GFSNIL_sfc_rhum_108.txt.gz
RH
81 86 85 86 83 82 80 75 79 87 90 92 91 89 90 86 94 92 94 90 90 88
85 88 91 89 88 87 81 75 80 90 92 92 90 90 92 93 90 82 90 90 88 91
86 86 90 91 92 91 81 76 81 89 90 93 91 93 88 84 83 89 93 91 90 88
86 86 87 90 91 92 95 74 78 87 90 91 95 94 92 89 89 92 94 92 86 91
86 86 88 89 90 93 93 92 77 80 86 90 90 89 92 93 91 91 92 90 92 95
86 89 90 90 89 90 91 93 92 81 88 92 89 91 88 88 88 88 88 94 95 96
89 88 90 90 90 90 90 91 91 94 94 95 91 87 84 84 87 88 90 90 88 91
88 86 88 90 91 91 92 91 90 92 93 95 94 93 97 93 91 86 90 98 98 98
89 89 90 91 92 92 94 96 92 95 94 96 91 97 100 99 97 96 97 99 99 97
96 97 97 97 92 93 94 93 97 96 94 97 96 97 98 99 97 97 98 98 96 93
97 98 98 97 96 97 96 95 96 96 97 95 95 98 98 97 95 96 96 96 96 96
98 98 98 98 98 98 95 94 94 94 93 95 96 98 99 95 94 95 96 93 94 95
98 95 97 98 99 99 99 97 95 95 96 95 96 96 96 96 94 94 93 92 93 93
89 89 92 92 97 98 99 95 96 96 97 97 97 97 95 94 95 95 93 94 94 94

GFSNIL_sfc_rhum_111.txt.gz
RH
79 82 82 84 83 85 87 86 84 87 85 91 95 90 90 91 92 95 93 93 91 91
80 84 87 86 86 87 88 86 89 89 85 82 87 87 88 82 94 91 91 91 95 93
83 84 86 88 89 88 88 90 93 91 88 85 79 80 83 87 94 94 94 89 96 96
85 85 85 88 88 89 90 89 91 93 90 84 82 79 87 93 92 93 92 94 91 86
84 84 86 88 87 88 89 88 89 92 96 85 76 75 94 94 90 89 94 90 87 84
86 86 87 87 87 86 88 87 86 89 92 94 87 84 92 91 91 90 91 94 94 96
90 89 87 86 86 86 86 88 87 88 90 92 94 97 95 96 96 96 95 96 94 90
90 88 86 86 86 86 87 86 86 88 88 91 93 89 95 96 96 96 98 99 98 99
90 89 91 86 86 86 88 87 87 90 90 92 89 96 96 98 98 97 99 99 98 98
92 97 97 90 87 90 94 89 90 90 91 93 95 96 96 98 96 98 98 99 98 96
91 92 96 94 97 97 94 96 96 94 93 93 94 97 98 99 95 94 96 98 97 97
95 94 93 95 97 98 93 95 96 97 94 93 95 95 94 93 96 94 94 93 95 96
86 89 92 94 97 97 97 97 95 95 96 94 96 97 94 95 94 93 93 94 92 95
83 84 86 88 90 91 90 89 91 93 93 94 96 97 97 94 95 95 93 93 95 95

GFSNIL_sfc_rhum_114.txt.gz
RH
76 81 81 82 83 84 86 85 85 88 88 90 90 89 88 92 96 95 95 94 92 83
81 84 86 84 84 84 84 79 84 88 90 90 92 91 88 94 95 95 92 91 88 86
81 83 84 85 87 86 86 87 88 88 88 90 91 93 90 89 89 91 90 90 89 88
81 81 83 85 85 86 87 86 87 86 89 90 92 94 92 86 88 92 92 95 94 89
79 79 82 84 84 85 86 84 85 85 86 87 88 91 94 90 84 94 95 93 94 89
83 82 82 82 83 82 83 83 83 84 86 87 88 88 93 95 93 93 92 90 93 88
84 85 82 83 82 83 82 83 83 84 85 88 87 87 90 91 97 95 91 90 91 91
90 86 86 89 90 84 83 82 83 85 85 89 88 89 94 94 97 98 93 99 99 98
86 86 91 92 91 89 86 86 86 87 88 90 86 96 94 93 94 96 96 99 99 99
91 93 94 94 91 95 96 90 91 93 94 91 91 93 96 94 93 93 95 97 97 97
88 93 95 94 95 95 97 97 96 96 96 96 97 97 92 94 97 95 96 97 96 96
83 87 89 93 94 92 92 94 96 96 96 96 97 98 97 92 94 95 97 97 95 95
85 86 88 87 92 92 89 90 89 90 90 89 96 97 97 96 96 95 95 95 96 96
87 86 88 86 85 89 90 88 89 89 88 88 88 91 91 95 95 97 96 95 96 97

GFSNIL_sfc_rhum_117.txt.gz
RH
78 81 81 81 82 84 84 84 84 86 87 88 88 90 92 96 93 90 96 94 93 89
81 84 85 82 82 82 82 79 83 85 87 86 88 90 92 96 95 88 93 94 94 93
82 82 82 84 85 84 83 84 85 85 86 87 86 88 91 94 94 92 92 94 92 93
85 82 78 83 84 85 85 84 84 83 85 84 85 86 90 93 94 94 90 93 94 93
82 82 82 81 82 83 83 82 82 82 83 84 85 86 88 91 93 91 93 91 94 89
86 83 84 80 79 82 82 82 81 82 84 86 87 86 88 88 90 94 92 89 92 88
88 88 87 84 83 82 80 81 81 82 82 86 84 85 88 89 92 94 94 96 96 92
88 83 84 84 85 85 85 81 79 82 82 85 84 85 91 92 90 92 92 92 94 97
86 84 88 90 89 88 87 85 84 86 85 87 86 93 91 93 92 90 91 93 92 92
86 88 90 88 87 90 92 90 91 90 90 90 95 97 94 92 93 94 95 96 95 91
82 85 85 89 92 92 91 93 93 92 91 90 92 97 97 96 96 95 95 95 95 99
85 89 87 90 92 92 92 92 92 90 90 90 92 94 97 94 96 96 97 96 95 95
87 89 92 92 93 92 92 92 91 90 89 83 89 84 88 92 95 96 96 95 97 96
89 87 91 91 90 91 92 89 89 89 90 88 84 84 81 81 92 95 92 93 95 96

GFSNIL_sfc_rhum_123.txt.gz
RH
75 77 76 75 76 76 77 75 74 77 78 80 80 82 83 87 91 92 95 94 93 90
74 75 78 77 75 75 74 71 76 76 79 79 80 81 83 86 86 90 92 93 94 93
76 76 76 74 78 77 75 76 76 78 78 79 79 80 82 85 84 87 90 89 92 92
80 78 77 77 77 78 76 76 77 79 81 80 82 81 84 86 84 88 89 90 91 93
78 77 76 78 76 77 77 76 78 79 82 80 81 81 83 86 84 88 89 90 91 91
78 78 77 74 74 73 74 74 75 79 85 85 86 82 80 78 81 83 85 86 89 89
75 75 74 71 71 73 73 74 75 78 82 89 84 81 80 77 78 79 79 83 84 86
69 68 69 71 70 70 72 72 72 75 78 85 84 86 85 79 77 77 78 80 77 82
67 66 72 70 70 69 70 70 70 73 74 81 72 80 82 80 80 78 79 81 82 76
76 78 80 74 73 78 80 79 81 79 78 80 75 73 79 80 82 83 86 88 87 83
75 80 81 82 86 87 85 88 88 88 83 83 82 70 73 80 91 93 90 90 92 92
79 85 85 92 89 87 86 86 88 87 87 87 87 70 70 81 86 91 90 89 89 88
73 84 91 90 89 86 83 85 79 83 86 81 87 70 70 78 82 88 86 85 89 80
73 75 81 83 85 87 84 83 85 82 84 85 82 82 70 71 85 88 82 86 89 88

GFSNIL_sfc_rhum_126.txt.gz
RH
67 67 69 72 75 80 76 72 70 72 73 75 75 76 78 80 81 81 84 89 91 91
71 72 72 69 69 74 75 68 71 73 76 75 76 76 78 79 80 80 83 85 88 90
70 70 70 66 71 71 70 71 74 76 76 75 75 76 78 81 80 83 86 85 88 89
71 70 68 70 71 70 70 71 73 75 76 75 76 75 77 78 78 82 84 85 86 87
71 68 67 69 69 70 70 69 69 70 73 70 73 75 77 78 77 80 83 84 85 85
65 65 65 64 65 66 65 66 68 68 73 71 73 74 74 75 77 78 80 83 83 86
60 59 57 56 58 61 59 60 62 65 66 67 67 71 73 70 73 74 78 83 81 84
57 55 57 59 58 58 58 54 53 55 57 58 58 65 76 69 70 72 75 78 75 81
58 55 61 60 62 59 58 59 59 61 59 58 46 71 77 74 71 72 75 77 76 74
67 68 71 63 62 67 69 65 73 68 66 68 64 70 73 73 76 77 81 84 82 74
65 74 74 76 80 82 86 86 86 82 81 75 74 68 70 70 82 92 86 88 88 90
74 80 79 80 81 84 84 85 83 82 79 80 80 67 67 74 86 96 87 86 86 83
71 79 81 83 81 84 86 85 78 82 79 73 79 68 66 76 74 81 75 77 81 71
63 75 78 80 84 82 81 81 79 79 79 76 75 76 67 66 78 79 73 73 78 78

GFSNIL_sfc_rhum_129.txt.gz
RH
63 61 60 65 66 70 73 72 73 79 75 76 74 71 73 74 78 80 86 86 86 84
63 64 65 64 66 68 69 64 69 71 77 72 70 72 75 76 80 79 82 85 86 87
64 64 63 63 68 68 68 68 69 71 71 69 71 72 74 75 76 79 82 80 85 85
64 64 64 66 68 68 69 69 70 71 73 71 72 72 74 74 75 77 80 82 83 84
62 60 62 65 67 69 75 72 70 70 68 68 69 71 74 76 76 79 82 82 83 84
55 53 53 53 55 55 55 57 60 59 61 60 66 68 68 69 72 74 80 82 84 85
52 51 51 51 51 53 51 50 50 52 53 53 57 68 71 65 67 69 70 76 74 79
51 51 53 56 55 54 54 51 50 51 51 50 50 59 72 63 64 66 67 69 67 72
53 51 57 56 59 56 55 55 55 56 54 55 41 69 71 66 64 65 65 65 68 63
60 63 65 60 61 65 66 63 68 66 62 62 59 67 74 72 66 66 71 73 72 61
59 65 66 70 78 81 82 84 82 78 75 69 67 66 70 72 73 83 78 80 76 79
69 76 75 80 81 85 81 84 82 81 76 77 80 66 67 71 79 90 86 80 77 76
69 78 82 82 81 86 88 84 79 82 79 72 81 66 66 75 74 77 74 74 78 67
59 74 76 78 85 85 84 85 79 81 83 80 78 79 65 66 80 83 74 74 81 80